Theta_e
316 316 317 317 318 318 317 317 318 318 319 319 319 319 320 320 320 321 321 322 322 323 324 325 326 326 326 326 327 327 325 327 321 317 315 321 331 338 340 340 340 337 333 320 315 312 309 310 310 311 312 312 312 312 311 315 313 312 305 301 299 300 298 301 300 301 304 303 303 304 304 303 302 305 306 307 305 305 306 306 307 307 306 308 308 309 310 311
316 315 315 316 316 316 316 317 317 318 318 319 319 320 320 320 321 321 321 322 322 323 323 325 325 325 326 326 326 326 324 325 317 314 315 328 338 340 340 337 337 333 329 315 311 310 308 308 309 310 309 308 314 307 313 309 314 306 302 300 299 300 300 303 304 304 303 302 304 304 304 303 303 303 306 302 304 305 304 306 306 304 306 308 308 309 309 310
316 314 314 315 316 316 316 316 317 318 318 318 319 320 321 320 320 321 321 321 322 322 323 324 325 325 326 326 326 325 324 325 315 309 318 333 339 340 336 333 331 330 317 313 312 312 310 309 310 309 308 306 308 306 310 307 309 305 305 300 300 303 302 304 304 303 305 304 303 303 304 302 304 304 307 302 303 304 303 303 304 304 304 306 307 308 309 309
315 315 314 315 316 316 315 316 317 318 318 319 319 319 319 320 320 320 321 321 321 322 323 324 324 325 325 325 326 326 328 323 308 310 324 334 338 339 334 326 322 323 316 314 313 313 312 311 310 309 306 305 306 308 306 306 307 307 304 301 301 302 301 303 304 305 304 304 303 303 304 302 305 305 304 303 302 304 303 303 302 302 304 305 306 307 308 308
314 315 313 314 316 316 316 316 317 318 318 318 319 319 319 320 320 320 321 321 322 322 323 324 324 325 325 325 324 327 321 304 307 315 327 334 337 335 333 330 325 319 315 314 314 312 312 310 308 307 307 303 305 305 304 307 307 306 303 303 303 302 302 304 305 305 304 304 303 303 301 302 305 304 303 303 300 302 301 302 303 304 305 304 305 306 307 307
315 314 314 314 314 316 316 315 317 317 318 318 319 318 319 319 320 320 320 321 321 322 323 324 324 324 324 324 324 327 318 296 309 317 330 332 336 331 329 324 323 315 314 313 312 310 310 309 308 306 305 304 303 302 303 305 306 302 303 304 304 305 303 305 305 304 304 303 302 302 304 304 303 303 305 303 302 302 304 304 304 304 305 305 306 306 306 306
314 315 314 313 314 315 315 315 316 317 318 318 318 319 319 320 320 320 320 320 321 322 322 323 324 324 323 322 328 321 308 306 310 325 328 330 330 328 323 324 323 315 314 312 311 310 308 306 306 305 304 304 304 303 304 304 307 303 301 303 303 305 303 305 304 304 303 302 302 304 304 301 303 300 303 302 302 303 304 305 305 305 305 306 305 305 305 305
315 314 314 314 313 314 314 315 316 316 317 318 318 319 320 320 320 320 320 320 321 322 323 323 323 323 322 329 319 313 307 305 316 323 323 326 322 317 320 316 314 315 313 311 311 309 307 305 305 306 305 303 303 303 303 303 304 303 302 303 304 303 304 305 304 304 303 303 305 304 301 302 304 303 302 302 302 303 304 305 304 305 305 305 304 304 305 305
315 314 313 314 314 313 314 315 316 317 317 318 318 319 320 320 320 320 320 320 321 322 322 323 323 321 321 320 311 304 303 317 320 325 326 322 318 314 317 315 315 313 312 312 311 310 308 306 306 307 303 304 304 303 303 302 301 302 302 303 303 303 304 305 304 304 304 304 303 301 301 304 304 303 301 301 301 303 304 304 304 304 303 303 303 304 304 304
316 315 315 315 315 314 314 314 315 316 317 318 318 319 319 320 319 320 320 321 321 322 322 323 322 320 321 318 310 300 311 318 324 326 323 316 317 315 314 316 314 313 312 311 311 310 307 308 307 308 308 305 305 303 303 302 301 303 303 303 302 304 304 305 303 305 304 303 303 300 302 302 302 301 298 300 302 304 303 303 303 303 302 302 303 303 304 304
316 316 316 315 315 315 314 315 316 317 317 317 319 319 319 319 319 320 320 320 321 322 322 322 321 320 319 310 304 301 319 323 326 324 316 315 314 314 313 313 314 313 313 312 310 311 310 310 310 309 307 304 304 302 303 302 303 303 302 303 303 304 304 304 304 303 304 302 303 302 301 302 301 299 300 299 302 304 303 302 302 303 302 302 302 302 303 303
316 317 316 316 316 315 315 316 316 316 317 318 318 318 319 319 319 320 320 320 321 322 322 321 319 319 313 310 305 306 311 325 325 320 317 316 315 314 313 313 313 314 313 311 312 313 313 311 310 307 302 307 301 303 302 303 303 302 302 299 303 304 303 305 303 303 302 301 301 303 300 298 299 299 300 300 301 302 303 302 302 302 302 302 302 302 303 303
316 317 316 316 316 317 316 315 316 316 317 318 318 318 319 319 320 320 320 320 322 322 321 321 317 323 315 304 306 310 316 323 319 317 317 317 314 314 313 315 314 312 313 312 311 312 311 311 310 307 307 305 304 300 302 304 303 303 302 301 300 301 302 302 302 302 301 301 302 301 294 299 299 301 301 301 302 302 302 302 302 302 301 302 301 302 302 302
317 317 317 317 317 316 316 315 316 316 317 318 318 318 319 320 320 320 320 320 321 321 321 319 322 319 311 304 308 314 320 321 316 315 315 316 315 315 313 314 314 314 316 313 312 312 310 310 311 308 308 305 302 305 302 302 303 299 302 301 298 298 298 301 302 302 300 300 301 301 295 299 299 300 302 302 302 302 302 302 302 301 301 301 301 302 301 301
316 316 317 318 317 315 315 316 316 317 319 318 318 319 319 319 319 320 320 321 320 319 318 320 324 319 307 305 314 321 325 321 315 316 318 314 314 311 311 313 312 313 313 312 311 310 311 312 310 305 303 305 305 302 300 301 302 301 297 297 300 297 299 300 302 302 300 300 302 300 295 299 299 300 301 302 302 301 302 301 301 301 300 300 301 301 301 301
317 316 316 317 316 315 315 315 315 317 319 319 319 318 320 319 317 320 320 320 320 319 324 323 316 313 307 303 312 324 320 311 312 319 317 316 316 311 313 311 312 312 312 309 311 311 311 311 306 306 303 303 301 300 300 300 300 300 298 297 297 300 300 300 299 301 301 301 301 300 297 300 298 300 301 302 302 302 302 301 301 299 299 300 300 300 301 301
317 317 316 317 316 316 315 315 315 317 317 318 318 319 320 319 319 320 320 318 320 319 324 315 313 313 300 311 315 310 310 314 316 317 314 315 314 313 311 311 309 309 310 310 311 311 309 306 305 305 305 302 303 302 297 296 296 298 300 297 300 297 299 297 298 301 302 301 299 301 298 299 301 300 300 301 302 301 301 300 299 299 299 299 300 299 300 300
317 317 317 318 317 317 316 316 316 317 318 318 318 320 319 320 320 318 321 321 323 319 319 316 314 311 305 307 303 305 312 312 315 314 314 314 314 312 311 308 309 309 309 307 309 306 307 304 304 301 302 301 301 299 294 292 297 297 298 297 298 299 298 297 298 299 301 300 299 300 299 299 302 300 300 301 301 301 301 300 299 299 298 299 298 299 298 299
318 317 317 317 318 317 317 316 316 318 319 320 321 321 320 320 322 322 318 317 313 306 301 305 304 294 295 306 309 310 313 313 315 313 310 312 312 313 312 312 310 306 304 303 304 305 305 305 304 300 298 299 298 299 298 299 300 298 298 298 298 296 297 298 300 300 301 298 298 299 297 300 302 300 300 299 301 301 300 299 299 298 298 298 298 298 299 299
318 318 318 318 319 318 317 317 317 318 320 319 320 320 319 314 315 310 315 314 309 305 310 310 308 307 306 308 308 310 313 314 310 312 312 312 311 310 309 309 309 307 304 301 303 303 307 299 297 296 299 301 302 301 302 302 300 299 299 298 297 297 298 301 301 299 301 297 298 298 300 300 301 303 300 300 300 300 299 298 298 298 298 298 298 297 298 298
319 319 320 320 319 319 318 318 318 319 319 321 319 316 303 303 300 298 309 309 312 311 310 311 309 307 307 310 310 308 307 307 311 310 311 313 312 309 305 306 303 300 302 304 304 303 302 297 298 301 302 303 303 304 302 301 300 299 298 297 297 298 296 300 300 298 300 296 297 301 299 299 301 302 300 300 299 298 299 298 298 297 298 298 297 297 297 297
319 319 320 320 320 319 319 318 318 320 320 320 317 312 314 313 314 311 311 303 311 312 312 312 311 309 311 310 312 313 313 307 305 310 311 311 308 305 305 304 302 299 304 303 302 299 297 296 300 303 305 302 301 301 301 299 298 299 297 297 296 297 300 302 301 299 299 297 296 299 297 298 300 302 299 299 299 300 299 299 298 297 296 296 296 297 297 297
319 319 320 320 320 319 319 319 319 320 319 315 314 314 314 317 317 317 314 311 305 313 312 311 309 307 308 311 310 311 306 304 303 308 308 309 306 306 305 301 301 302 302 302 298 298 295 298 302 305 303 301 299 299 299 299 299 298 297 295 294 299 297 294 299 298 298 298 297 298 296 298 301 301 298 297 298 296 296 296 296 297 297 296 296 297 297 297
319 319 320 320 320 319 319 319 320 318 317 316 315 315 319 317 317 315 313 303 301 310 311 312 311 310 308 307 312 308 306 306 307 306 312 308 305 307 305 303 301 301 299 300 300 299 298 302 305 304 301 301 299 299 298 297 296 299 298 298 297 298 298 297 298 297 298 298 298 297 295 296 299 298 295 295 295 294 294 294 295 296 296 297 296 296 297 297
319 319 319 320 320 320 319 320 315 315 318 316 314 319 322 322 320 318 310 304 304 305 316 313 314 313 313 316 313 306 307 308 309 311 310 309 306 304 303 306 303 299 300 301 300 299 299 303 304 301 300 299 299 298 299 299 296 298 301 299 299 300 299 299 300 297 295 296 297 295 290 293 300 300 299 294 293 293 294 293 294 294 294 294 294 295 295 296
318 319 319 319 320 320 320 311 314 317 315 312 315 321 322 323 322 318 310 299 293 304 305 301 314 306 319 308 311 309 308 302 310 311 310 309 312 306 303 301 303 298 301 300 299 300 300 302 303 301 300 300 300 299 301 300 296 296 298 302 301 299 299 299 298 295 291 289 295 297 290 289 297 296 297 293 294 293 293 294 294 294 293 294 295 295 295 294
319 318 319 319 320 320 312 308 318 317 309 312 319 322 321 321 319 315 298 294 290 304 300 308 307 306 315 310 309 310 295 300 306 309 308 308 305 309 301 300 301 301 302 303 299 296 301 299 300 302 300 300 299 297 301 301 297 295 299 301 300 299 298 298 297 296 294 299 298 295 295 289 289 297 297 295 294 293 292 293 294 293 294 294 294 295 295 295
319 319 319 320 320 319 316 317 316 312 311 316 320 323 321 319 317 313 299 284 284 308 302 301 306 311 311 308 311 305 302 305 300 302 305 306 307 304 302 301 300 300 301 301 291 302 301 298 299 299 299 298 297 300 303 303 298 298 298 300 299 299 299 299 297 295 295 293 290 293 297 289 289 296 296 295 293 292 293 293 293 293 294 294 294 294 294 295
319 319 319 319 320 320 321 317 316 313 320 318 320 321 320 318 314 303 294 282 304 301 312 301 311 307 306 308 305 304 301 302 299 301 305 306 306 304 299 301 303 302 302 301 296 301 299 300 301 302 300 297 301 299 301 302 297 299 299 299 299 299 298 298 295 294 294 290 286 292 295 288 289 297 293 294 294 294 294 294 294 294 294 294 294 294 294 294
319 319 319 319 319 317 317 319 316 323 318 319 318 318 317 313 305 293 289 280 306 295 303 302 302 300 305 301 301 301 299 300 300 301 304 302 303 305 302 304 302 301 299 301 300 299 298 298 299 300 300 301 297 296 296 299 299 299 300 298 296 296 296 295 295 294 291 285 287 294 295 292 286 295 297 295 296 298 297 295 295 294 294 294 294 294 294 293
319 320 319 319 314 317 316 311 315 319 317 316 316 315 313 307 296 289 282 292 303 301 301 299 297 304 300 299 297 300 301 299 299 300 297 300 299 302 302 300 305 300 299 299 297 300 298 297 298 300 299 298 300 295 296 297 299 300 296 295 294 292 294 292 290 291 285 284 289 291 295 295 285 291 298 298 297 299 297 295 293 293 293 294 294 294 293 293
318 319 320 318 320 320 311 310 317 317 314 314 312 310 305 292 297 287 287 300 290 297 298 296 300 301 300 303 301 297 295 296 299 298 297 296 296 296 296 295 297 290 291 293 293 299 296 296 300 298 299 299 297 296 294 296 296 297 295 294 289 287 286 284 287 282 283 284 287 289 291 289 289 295 296 296 297 297 299 298 295 294 294 294 294 294 293 294
318 318 319 319 318 317 318 320 320 316 313 312 309 308 298 291 282 293 294 296 292 302 298 303 298 300 300 300 299 298 299 294 298 298 301 299 298 298 301 300 301 299 292 297 294 293 295 300 299 299 296 299 300 294 292 290 293 294 292 291 287 285 283 281 284 286 287 286 287 288 292 286 293 295 299 297 296 298 297 298 298 296 295 294 294 294 293 293
318 318 317 318 319 319 321 321 318 314 310 309 306 299 296 286 286 298 296 297 297 300 301 299 299 301 301 296 298 297 293 299 296 296 298 297 297 295 298 300 302 300 298 298 292 293 288 289 294 296 293 299 298 299 298 296 293 293 298 295 290 290 286 281 285 282 284 286 284 288 286 286 286 291 292 293 293 294 295 296 298 297 296 295 295 294 293 293
318 318 319 318 317 320 320 319 316 313 309 306 302 295 287 286 293 293 295 298 298 299 296 301 298 298 297 298 296 298 300 293 297 296 295 296 293 295 296 297 300 301 301 293 296 294 293 293 297 300 297 299 297 301 301 299 295 296 297 299 292 289 295 287 286 286 285 285 283 283 286 292 292 292 293 293 293 292 294 294 296 295 296 295 293 293 292 292
316 316 318 314 314 318 320 318 316 312 308 303 297 290 288 293 291 299 297 304 299 296 296 298 299 295 295 296 297 297 300 296 296 296 295 296 298 296 301 301 299 300 298 293 298 291 293 291 294 296 297 297 298 299 299 302 288 293 294 288 292 297 294 287 285 285 283 284 284 288 287 291 294 291 292 292 292 292 292 293 294 295 294 294 293 293 293 292
312 316 311 313 314 320 319 316 314 310 306 300 295 288 295 298 303 302 303 301 300 299 297 293 293 294 293 293 294 295 297 299 296 295 292 297 294 298 298 300 303 301 302 300 296 301 291 292 291 294 291 294 294 296 298 297 298 295 288 293 296 299 296 290 285 286 284 282 284 288 285 287 287 286 291 291 291 291 292 292 293 294 294 293 293 293 293 293
312 313 313 313 316 319 318 315 313 309 304 298 292 294 302 297 306 303 304 302 301 300 297 295 297 299 295 295 293 294 297 294 294 294 293 296 292 302 298 298 302 301 301 304 297 298 300 290 291 293 294 294 294 296 295 297 297 295 294 301 292 286 285 291 287 280 281 281 283 287 288 288 289 289 288 290 291 291 292 292 292 292 293 293 293 294 294 294
312 310 305 313 319 318 317 315 311 305 299 293 291 291 300 301 305 304 303 304 303 301 297 298 297 298 298 295 297 297 296 291 295 293 292 295 291 300 298 300 299 302 301 302 296 298 299 290 290 291 293 294 294 294 287 291 296 296 297 294 297 292 289 287 287 288 287 282 282 283 285 284 292 293 292 293 293 293 293 291 291 292 293 293 294 294 293 293
308 304 304 317 318 318 316 313 306 302 297 289 291 293 304 301 303 304 303 303 301 299 298 299 300 297 297 298 299 294 297 297 295 294 295 297 295 302 299 302 300 299 301 301 298 301 293 295 287 288 293 293 287 291 290 293 288 289 290 290 291 289 290 290 291 288 286 284 283 283 282 286 293 294 296 297 296 295 294 292 293 293 294 294 294 294 294 294
310 305 305 316 317 317 314 307 300 295 294 296 298 298 300 299 303 302 304 305 305 303 301 301 300 297 298 296 297 300 296 296 296 294 295 296 296 291 301 301 302 297 301 299 298 297 291 291 288 287 287 287 292 297 295 295 296 292 291 290 291 288 286 283 282 290 286 285 283 283 281 288 294 294 294 294 296 298 296 295 294 294 294 294 295 295 295 294
305 296 302 315 317 315 307 296 297 300 296 294 294 299 298 302 301 302 302 303 303 302 303 300 300 301 301 298 299 298 296 294 296 295 296 294 298 298 299 298 301 300 296 291 294 299 297 294 290 285 288 290 294 292 293 292 291 294 294 293 295 293 291 287 282 285 285 287 287 286 282 286 292 294 294 293 294 294 296 297 296 296 295 295 295 296 296 296
302 300 305 314 316 312 303 295 297 296 294 298 303 301 302 299 300 302 300 302 300 302 300 298 299 298 300 300 298 297 298 294 296 294 297 297 297 296 295 296 299 299 299 295 298 295 293 289 287 289 291 291 292 294 294 292 293 292 292 293 294 290 291 290 289 289 286 286 284 285 281 287 292 294 293 293 293 293 294 296 297 296 296 295 296 296 296 295
304 300 301 307 312 311 300 289 289 292 294 299 299 299 302 301 300 298 299 301 299 298 298 299 298 300 299 299 298 295 299 290 297 296 295 298 295 294 295 295 298 296 297 295 294 297 289 289 290 286 285 287 288 290 291 292 292 290 290 292 293 295 296 292 288 289 286 287 287 285 280 287 292 293 293 292 293 293 293 293 297 296 294 296 295 296 295 294
298 301 300 302 304 305 296 297 293 292 293 294 294 293 294 296 300 300 300 299 302 299 298 297 300 300 297 299 296 296 298 296 290 296 297 295 295 294 295 295 296 296 297 296 293 301 292 291 288 284 281 280 279 280 283 284 286 289 292 292 293 293 291 288 286 287 283 287 287 285 285 291 293 293 293 293 292 292 293 293 294 296 294 294 293 294 293 293
295 288 296 296 300 297 299 298 299 295 292 292 291 292 295 292 295 296 300 300 300 298 298 297 295 298 293 292 291 291 292 293 293 291 292 292 291 292 292 293 294 296 294 293 293 295 289 293 293 290 288 287 289 288 292 294 289 286 288 290 291 293 294 291 290 287 284 287 286 287 288 288 289 292 292 292 292 291 289 290 292 292 293 294 295 294 294 293
299 292 290 287 296 296 294 298 297 297 292 296 289 292 290 292 293 292 298 293 296 296 294 294 294 292 291 292 290 290 292 289 290 290 291 291 289 290 291 292 292 292 291 294 293 289 289 288 290 291 288 288 289 290 291 294 289 290 288 288 290 289 289 288 286 285 288 287 283 289 291 287 289 292 292 291 290 291 290 292 289 293 294 294 294 294 293 293
293 294 298 299 293 288 288 289 295 296 298 297 291 296 291 290 289 287 292 294 296 298 292 291 291 295 295 293 293 287 286 286 288 287 289 289 288 290 291 292 292 292 293 294 295 292 288 286 290 289 288 287 287 287 290 291 290 290 290 289 288 289 288 286 286 290 291 286 284 289 290 288 291 292 294 293 293 290 291 293 294 295 295 294 293 292 291 292
296 293 294 298 293 295 293 295 295 296 295 295 292 291 289 290 288 292 290 288 291 290 295 287 288 293 295 296 293 289 287 285 284 287 287 288 287 288 287 290 291 292 293 292 292 290 289 287 287 287 286 285 284 285 287 287 287 286 287 290 291 289 287 287 288 290 290 288 291 290 290 290 293 294 294 294 295 293 294 296 296 294 293 293 293 292 292 292
289 293 289 295 294 294 296 295 295 294 291 294 289 288 291 290 289 291 291 290 285 288 295 290 291 292 293 293 293 289 289 291 290 285 289 287 287 288 289 291 288 289 291 289 290 291 290 286 287 286 286 285 283 284 285 285 285 284 287 288 289 289 288 287 288 288 289 289 290 290 288 288 295 296 295 295 295 295 295 294 294 294 294 293 292 292 292 292
296 294 298 293 290 290 293 293 293 292 290 291 289 290 290 291 291 294 291 295 293 288 291 289 293 290 291 290 291 292 295 290 290 289 290 290 287 289 288 288 292 286 287 287 288 287 288 285 286 285 283 283 281 283 283 284 284 284 285 287 287 287 285 286 285 287 286 286 287 287 285 287 294 296 295 294 294 294 294 294 294 294 294 293 293 293 293 293
294 296 295 297 290 293 290 292 293 292 286 290 291 292 291 290 294 295 288 292 292 295 294 293 293 290 287 288 288 292 294 293 293 294 294 295 295 295 295 294 293 288 286 286 287 286 287 286 284 285 282 282 279 282 283 282 283 281 283 286 289 288 288 288 288 289 288 289 286 285 286 293 295 293 292 293 294 294 294 294 294 294 294 294 293 293 294 294
Wind_Speed
3 2 2 2 3 3 3 3 4 4 4 5 5 5 5 6 7 7 8 9 9 10 11 12 11 12 12 12 12 11 14 6 4 2 1 4 4 8 7 5 5 4 4 5 5 5 2 1 2 2 2 2 2 1 2 2 4 3 3 2 3 3 2 4 1 2 3 3 5 3 3 3 4 1 2 3 7 7 6 4 6 7 9 8 6 5 6 7
2 1 1 2 2 3 3 3 3 4 4 4 4 5 5 6 7 8 9 9 10 11 12 12 12 12 12 12 11 11 10 5 3 8 6 4 5 7 5 2 1 2 4 5 3 3 5 1 2 3 3 2 2 3 3 2 3 4 0 3 2 2 5 3 4 4 1 4 3 2 2 3 3 4 3 6 3 6 6 5 7 8 8 7 8 7 7 7
2 1 0 1 2 2 2 3 3 4 4 5 6 7 7 7 7 8 9 9 10 11 12 12 13 13 13 12 10 9 6 4 6 6 3 6 4 5 2 1 2 1 4 5 2 4 5 4 3 5 2 1 2 3 3 3 5 3 4 2 3 4 5 4 2 4 5 3 0 1 2 2 3 3 5 6 8 8 6 2 6 7 5 6 7 7 7 7
1 1 1 1 2 2 2 3 4 4 4 5 6 6 7 8 8 8 9 10 11 11 12 12 13 13 12 12 9 7 4 6 2 4 5 6 5 2 2 2 2 5 5 2 2 1 1 0 2 4 1 2 2 1 2 3 3 3 4 3 4 3 1 5 2 3 2 3 3 2 1 6 2 2 5 6 9 7 7 8 7 5 5 5 6 6 6 6
1 1 1 1 2 2 3 3 3 4 5 5 6 7 7 8 8 8 9 10 10 11 12 12 13 13 12 11 11 4 5 6 4 3 5 6 5 3 3 3 4 6 4 1 2 0 2 3 2 2 4 2 1 2 4 3 4 4 3 4 3 2 1 5 3 3 1 1 3 2 5 2 3 6 5 6 7 3 5 6 5 4 5 5 6 5 5 7
2 2 1 2 2 2 2 3 4 4 4 5 5 6 6 7 7 8 9 9 11 11 12 12 13 13 13 12 8 4 4 2 3 3 6 6 2 4 3 2 4 5 2 1 3 1 4 1 4 2 2 4 2 5 5 2 3 3 5 1 1 3 4 4 2 4 2 2 3 5 2 4 6 6 4 5 4 5 4 5 5 4 4 4 4 5 6 7
3 3 3 2 2 3 2 3 3 4 4 4 5 5 6 7 7 8 9 10 11 12 12 12 12 13 14 13 5 5 5 1 3 3 4 6 4 4 1 1 3 2 3 3 1 3 1 3 4 3 5 4 1 2 3 1 2 5 2 3 2 1 4 2 1 4 3 5 5 3 3 6 5 8 4 3 6 5 6 5 4 4 4 3 4 5 6 7
5 5 4 4 3 3 3 3 4 5 5 4 5 5 6 7 8 9 10 11 12 12 12 12 12 12 12 4 4 3 4 1 5 1 2 5 2 3 3 1 1 2 3 3 4 2 2 4 4 3 4 5 4 4 3 4 5 3 2 3 3 3 4 4 3 4 5 6 6 4 6 9 6 4 3 3 5 5 5 3 3 3 3 4 5 6 6 6
7 6 5 5 5 4 4 5 5 5 6 6 5 6 7 7 8 9 10 11 12 12 11 12 11 10 7 4 3 5 2 3 3 3 1 2 2 1 2 3 3 3 1 2 2 4 4 1 3 2 5 4 2 4 0 5 3 2 4 1 2 4 4 5 6 7 7 4 4 5 9 7 3 2 4 4 4 4 4 3 2 2 4 5 6 6 6 6
8 7 7 6 6 5 5 5 6 5 6 6 7 7 7 8 9 9 11 11 12 11 11 11 10 11 5 4 2 6 3 3 2 2 2 2 3 2 2 3 2 3 3 1 2 3 3 4 4 3 4 3 1 1 2 5 3 3 2 4 6 7 6 6 8 6 3 5 4 7 9 4 4 5 4 4 6 5 4 3 3 2 4 6 5 5 7 7
10 9 7 7 7 6 6 6 6 6 5 6 7 7 8 9 9 10 10 11 11 11 10 10 10 9 2 3 6 6 2 2 1 3 3 0 2 4 1 1 1 4 4 1 2 2 3 1 1 0 3 2 3 3 3 3 2 3 5 7 10 10 9 8 7 7 4 6 6 7 6 3 6 2 1 7 6 5 4 4 3 2 3 3 4 4 4 5
11 10 9 8 7 7 6 6 6 6 6 6 7 7 8 9 10 10 10 10 10 9 8 7 9 4 5 5 7 2 2 3 1 3 3 0 2 3 3 3 2 3 4 3 3 1 3 1 3 2 2 1 2 1 2 1 2 2 5 7 6 7 9 9 7 3 5 2 3 3 5 8 10 7 8 7 6 6 4 4 3 3 3 3 3 3 3 4
11 11 10 9 8 8 7 6 7 7 6 6 7 8 8 9 10 10 9 9 7 8 6 6 6 3 3 7 1 2 2 2 2 3 4 4 5 4 3 2 2 3 3 5 3 2 1 1 2 5 1 4 3 2 4 3 1 4 7 6 9 8 9 7 4 4 5 4 5 4 5 6 11 8 7 6 7 6 5 4 3 2 2 2 2 2 3 4
10 10 11 10 8 7 6 7 7 7 7 6 7 8 9 9 10 9 8 7 7 6 6 7 5 4 3 5 4 1 1 2 3 5 5 4 4 3 3 3 2 2 2 2 6 2 1 1 2 3 2 3 0 3 4 3 4 5 1 3 7 6 2 7 5 6 5 5 6 5 6 1 9 8 6 4 7 7 5 4 3 2 2 2 2 2 3 4
11 9 11 11 5 4 7 8 8 9 7 6 7 7 9 9 9 7 6 7 2 5 6 6 4 3 6 1 3 4 3 3 4 5 3 4 5 5 4 4 5 5 4 5 3 1 1 2 3 5 2 2 3 4 5 6 5 4 4 6 6 5 3 7 6 5 6 3 5 6 6 7 9 9 6 5 6 6 5 4 3 2 1 2 1 2 3 3
12 11 12 10 6 7 8 8 10 9 7 6 7 7 8 8 6 6 5 6 6 6 4 3 4 3 5 8 3 4 3 5 6 5 2 2 2 2 6 6 6 5 5 4 2 2 2 3 2 3 4 4 5 5 5 5 6 6 6 8 8 5 4 5 5 3 1 3 5 9 6 2 7 7 6 4 5 5 5 4 4 3 3 2 2 1 1 2
11 11 11 9 9 9 8 8 9 8 6 6 8 10 7 4 6 6 4 4 3 3 2 2 3 2 6 3 3 5 6 3 3 4 3 0 2 6 8 7 5 6 6 6 3 4 2 4 2 3 5 6 4 4 4 6 7 7 6 6 6 6 4 5 6 4 4 4 5 8 8 10 3 10 9 6 5 6 5 5 4 3 2 2 1 1 1 1
11 11 10 10 11 11 9 8 9 10 7 6 9 7 5 4 7 7 5 4 2 2 3 2 3 2 8 5 6 3 6 6 4 5 3 1 4 8 6 5 5 7 7 7 3 6 3 3 3 6 4 6 6 6 6 7 4 5 3 5 5 8 8 10 8 6 6 5 6 7 11 12 8 9 9 6 6 6 5 5 5 4 4 3 2 2 2 2
13 12 12 14 11 10 8 8 10 9 7 7 8 6 6 7 5 4 2 3 4 3 4 7 6 8 5 6 7 7 3 4 5 4 5 8 3 4 3 3 7 8 6 5 5 7 4 3 2 5 9 8 10 11 10 10 10 9 7 6 7 8 7 7 2 7 5 5 7 9 11 10 11 8 8 6 6 6 6 5 4 5 4 4 3 3 2 1
13 15 15 12 13 12 11 11 11 9 7 6 5 4 3 3 4 4 5 6 10 9 3 0 13 3 6 6 6 5 5 4 5 2 7 4 8 8 6 6 5 6 6 6 6 6 3 7 8 9 10 9 11 13 12 11 5 6 6 9 10 10 12 11 7 5 4 4 10 12 14 14 13 12 9 8 7 6 6 7 6 5 5 4 3 3 3 3
14 13 12 13 13 10 11 11 10 9 6 6 4 3 5 8 7 6 7 9 13 13 11 5 6 5 3 7 7 10 7 5 2 6 6 4 5 10 7 7 7 7 9 7 5 3 3 9 11 13 12 9 7 9 10 10 6 9 9 9 9 9 11 9 5 6 2 3 9 10 14 13 13 14 9 8 8 8 8 8 6 6 5 4 5 4 4 4
13 11 13 12 11 12 12 11 10 6 4 5 5 6 4 4 4 2 3 5 11 16 14 10 2 6 4 2 6 2 4 4 5 8 3 6 9 10 9 9 10 9 7 6 4 3 7 11 12 12 6 4 3 1 3 7 8 8 8 8 9 9 10 9 7 5 2 2 9 8 11 12 11 9 9 8 7 5 4 3 5 6 5 5 4 4 4 4
13 13 13 11 12 13 13 11 6 6 5 4 6 7 4 5 3 2 3 5 10 9 13 12 10 13 8 4 5 2 9 11 9 12 11 8 10 10 8 10 10 9 9 11 9 8 9 11 15 9 4 3 3 3 4 6 8 8 7 8 9 7 5 7 3 1 4 4 6 7 11 12 15 5 6 4 3 4 2 2 2 2 5 5 5 5 5 5
14 15 12 10 11 14 12 8 6 6 7 8 8 7 4 2 4 4 3 5 6 6 9 10 12 10 13 7 8 10 11 8 10 12 11 10 11 7 8 12 12 11 10 13 15 12 12 2 1 9 5 8 9 7 7 7 9 9 11 10 10 9 7 7 4 2 3 9 6 8 11 13 14 11 5 4 3 4 4 5 4 3 1 2 3 3 3 6
14 14 13 11 12 12 12 7 5 5 6 8 11 9 6 4 2 5 4 5 8 7 4 0 2 7 6 7 10 10 11 9 9 6 14 14 10 7 9 7 8 12 11 13 13 14 16 3 3 6 5 7 8 8 9 8 10 9 11 13 12 11 12 10 10 8 7 9 8 7 5 6 2 9 8 7 5 6 6 6 6 6 5 5 6 6 4 3
16 16 15 14 14 14 11 5 6 7 7 9 3 4 8 6 4 3 3 4 10 4 4 8 10 4 8 8 10 7 5 11 3 6 13 6 1 6 5 6 6 11 12 12 11 9 5 6 5 7 6 7 9 10 9 9 9 9 6 3 9 10 10 10 9 2 6 5 4 3 6 4 4 7 9 7 7 7 6 6 7 6 6 6 5 6 6 6
15 15 14 15 15 14 9 6 6 9 6 8 9 5 2 2 1 2 2 3 11 8 9 3 4 1 3 10 13 9 6 7 5 6 9 2 9 1 8 7 4 2 3 2 1 7 6 6 6 5 8 8 9 10 11 10 8 9 4 1 2 4 7 7 7 8 8 4 3 6 6 7 8 6 8 8 8 8 7 9 8 7 7 7 6 6 7 7
17 15 13 14 15 16 4 4 9 10 7 4 3 5 4 3 3 2 2 2 6 8 6 4 0 4 2 5 8 13 4 10 7 5 4 2 2 4 7 12 10 10 8 7 12 3 7 9 10 10 10 9 11 10 4 11 9 2 2 2 2 4 6 6 6 7 6 5 7 7 8 5 7 5 6 9 7 9 10 11 11 10 9 9 8 7 7 7
19 17 15 14 15 19 7 5 8 9 3 5 4 3 4 4 4 3 2 7 3 3 5 5 3 3 7 8 8 3 6 2 3 5 1 3 5 2 9 13 9 8 12 14 13 3 3 1 5 10 7 10 4 7 2 8 10 3 4 5 4 1 1 4 5 5 5 5 10 8 10 6 9 5 6 5 5 8 11 12 12 11 11 10 10 9 9 7
20 19 17 15 12 14 7 4 8 3 4 4 4 4 6 5 4 6 5 9 6 6 5 4 6 9 12 13 11 6 5 3 4 5 7 5 7 2 4 5 3 6 6 8 9 3 3 2 3 3 7 1 7 7 5 5 4 7 6 5 4 3 3 2 4 4 4 10 11 12 11 9 6 4 7 6 4 5 8 9 10 11 11 11 10 11 9 8
20 20 19 18 13 8 5 8 11 5 5 4 6 7 7 3 5 8 10 8 4 2 3 7 6 10 15 16 10 10 7 4 7 9 6 3 7 6 4 4 3 4 4 6 9 7 4 5 3 2 5 4 6 6 5 2 2 6 3 5 4 3 3 4 3 3 6 8 2 0 8 12 9 3 5 6 6 4 10 13 15 15 14 13 11 10 10 9
20 21 21 17 9 9 14 12 10 7 6 6 7 8 9 8 4 11 11 11 6 9 13 9 9 11 16 12 5 12 11 6 8 9 9 9 9 12 13 11 10 6 8 11 9 7 9 8 5 6 2 8 6 5 3 3 3 4 6 6 6 3 3 5 5 6 10 8 3 2 6 2 13 9 4 3 4 4 5 8 14 16 15 14 13 12 10 9
21 20 22 16 13 12 14 3 9 8 9 7 7 3 7 9 13 12 13 11 5 8 5 9 13 15 15 12 8 9 5 8 9 9 8 9 9 11 12 12 11 10 6 8 10 4 4 5 11 8 4 8 10 10 7 4 8 9 10 9 7 7 7 7 7 5 4 3 3 4 4 5 3 8 8 5 6 5 4 3 11 14 16 15 14 12 11 9
22 20 15 14 13 11 8 7 8 12 10 7 8 6 5 8 15 17 18 15 5 4 9 6 12 9 14 10 9 11 6 5 11 7 8 8 10 9 11 15 13 12 3 1 9 8 6 4 11 13 6 13 13 12 10 6 11 12 9 10 8 5 3 6 6 8 4 0 3 2 2 3 5 2 3 5 3 4 4 3 8 11 13 13 13 11 11 10
23 19 14 10 10 10 11 9 12 14 11 8 8 11 13 13 11 12 16 10 5 6 5 10 11 11 10 5 3 12 4 5 10 9 8 9 10 10 12 13 15 10 8 6 7 3 13 8 6 4 4 12 13 6 2 7 6 9 8 4 5 7 4 6 2 3 2 0 3 4 5 2 3 4 4 3 4 3 5 5 8 12 12 13 12 12 11 10
17 10 12 7 13 12 11 10 11 13 12 10 11 13 16 15 9 9 6 10 6 9 11 9 7 8 8 8 5 12 1 1 12 8 8 12 9 10 12 8 14 19 13 11 6 7 3 7 6 4 2 6 7 2 6 1 7 8 6 7 6 6 3 0 2 2 0 2 9 5 4 6 3 3 5 5 5 6 6 8 9 12 13 13 12 11 11 11
13 12 9 13 13 13 11 10 11 11 9 10 11 14 18 8 5 8 6 14 11 17 12 9 9 11 10 10 8 12 9 4 10 9 8 9 9 13 11 12 12 16 17 9 5 6 3 2 1 6 5 1 3 4 1 2 3 8 7 8 4 2 5 1 5 2 3 8 6 7 8 6 6 6 6 7 7 7 8 9 10 11 12 13 12 12 12 12
12 8 12 12 16 14 13 12 12 9 9 12 15 20 4 8 3 4 4 6 12 15 9 13 6 14 10 11 10 13 11 10 12 10 7 13 5 13 15 7 13 16 20 14 7 2 5 9 5 3 4 4 1 3 4 1 2 3 2 2 8 6 4 8 2 8 7 9 6 6 10 10 9 6 5 9 11 11 11 10 12 13 13 14 13 13 12 11
10 9 7 16 13 16 14 14 12 11 10 10 11 17 12 6 2 2 1 2 4 13 16 15 11 10 11 10 9 14 16 11 13 11 7 9 7 12 15 11 10 16 16 10 6 3 3 7 3 2 2 5 4 7 9 9 5 1 2 3 2 2 4 6 7 2 1 8 4 4 7 6 7 7 13 11 13 13 13 12 13 15 15 14 13 14 14 13
8 4 8 12 17 16 15 15 11 8 7 14 15 14 3 10 4 1 2 1 6 10 12 12 14 10 13 12 11 11 12 11 13 10 11 7 8 9 13 13 8 11 15 15 9 4 5 3 6 5 2 6 6 9 13 13 12 9 7 8 4 3 3 3 3 5 5 6 8 8 8 3 3 4 2 9 13 13 15 14 12 12 13 14 14 14 14 13
7 5 3 15 18 17 15 10 7 13 12 14 10 8 6 12 4 2 3 3 2 6 3 5 10 16 9 11 12 10 8 11 9 9 9 7 12 4 10 11 8 8 5 8 11 4 3 4 9 4 5 8 5 2 2 3 9 12 13 14 14 10 6 6 8 2 2 3 6 5 10 1 4 3 5 8 6 8 11 11 10 11 12 13 13 14 14 13
7 7 6 16 21 22 17 15 9 10 7 13 16 10 7 4 3 6 3 1 3 0 2 3 4 3 3 9 8 6 7 8 10 9 9 10 9 12 3 6 5 13 13 10 13 9 5 2 4 5 7 8 2 3 2 1 4 4 6 10 11 8 8 7 11 4 1 5 3 2 5 3 3 2 4 5 4 6 4 7 7 8 11 12 12 12 13 12
10 9 5 12 20 23 18 12 13 11 12 12 3 1 6 1 5 5 6 3 5 2 1 3 4 4 5 3 2 7 10 6 12 11 9 12 5 2 3 1 2 13 7 0 5 2 8 2 5 5 4 3 4 3 1 1 3 5 7 4 6 13 13 8 5 2 6 4 3 4 7 3 2 3 3 3 4 2 1 3 6 7 8 10 12 13 13 12
5 3 4 3 8 18 17 14 12 15 15 3 7 5 3 4 9 8 9 9 8 6 7 4 1 5 1 3 3 6 9 7 10 12 5 3 4 4 2 1 5 9 11 5 7 10 5 5 6 6 2 3 2 3 3 2 4 8 9 8 7 5 4 1 3 1 4 9 5 8 13 3 4 2 2 2 3 3 4 2 4 7 7 9 10 10 8 9
5 1 3 3 3 8 18 12 15 15 15 15 10 12 6 3 4 6 9 12 6 3 4 6 3 6 3 2 1 2 3 10 1 3 3 2 2 1 3 1 3 5 3 4 2 3 9 5 10 11 13 11 10 12 13 12 13 7 7 7 11 13 8 4 7 5 9 6 9 9 10 4 6 2 1 1 2 3 3 5 3 4 7 8 7 7 8 9
4 3 2 1 1 3 3 3 7 13 16 16 11 12 10 7 1 2 2 7 3 2 0 3 2 3 4 4 4 6 8 0 5 1 4 4 2 2 2 2 2 1 2 4 4 2 1 1 9 13 10 10 5 3 6 9 9 12 11 12 12 10 10 7 3 7 14 3 9 11 6 4 7 7 5 5 4 3 3 3 5 6 6 7 8 9 10 10
3 6 7 3 4 4 1 4 10 12 16 18 11 7 14 17 5 0 2 7 7 8 2 2 5 8 5 8 7 7 3 2 1 2 6 4 2 1 2 1 2 2 4 1 3 2 0 4 11 12 1 3 3 3 4 5 12 11 9 13 11 11 10 11 12 12 3 3 12 5 8 6 8 10 7 6 4 2 3 5 4 6 8 8 7 7 8 8
6 2 8 6 11 12 11 9 12 17 15 16 7 6 14 13 6 8 3 2 4 7 7 2 4 13 12 15 10 6 5 3 4 6 3 1 5 1 2 2 1 4 2 1 1 4 3 6 2 3 4 5 5 2 4 5 2 2 8 9 12 11 10 15 16 10 5 9 9 3 11 9 10 12 10 10 9 10 9 8 9 8 6 7 7 8 9 10
1 3 1 3 5 1 15 11 13 11 15 17 7 8 9 15 17 14 5 4 6 5 12 8 13 16 12 12 12 8 9 5 8 5 4 5 6 5 3 3 3 1 1 1 2 1 2 4 2 0 2 2 3 3 2 0 1 2 4 5 9 11 14 14 13 12 9 9 8 3 7 8 7 6 9 9 9 8 8 7 6 7 8 8 8 9 9 10
6 5 3 2 4 1 8 7 9 9 9 12 9 9 12 14 17 9 4 9 7 8 7 13 14 13 12 12 13 13 17 17 9 11 10 7 2 2 4 2 3 1 1 3 2 2 4 3 5 1 1 1 2 2 2 1 0 3 7 8 9 7 9 12 11 10 8 12 12 6 3 10 6 6 5 4 6 4 4 7 8 7 8 8 8 8 8 9
1 2 2 7 8 4 4 8 9 12 9 8 9 10 10 16 17 15 10 5 15 11 15 23 16 9 6 10 11 13 5 3 2 7 12 13 13 6 5 3 6 6 3 2 2 2 2 2 2 0 3 3 2 3 3 3 2 4 11 14 11 9 10 10 9 6 7 10 7 4 8 11 2 6 6 8 7 8 9 8 7 6 7 8 8 8 7 7
2 0 2 2 5 7 9 7 7 8 11 11 14 15 12 19 14 14 6 5 5 5 9 8 10 11 3 9 15 11 6 6 6 5 7 6 6 5 6 3 5 5 5 3 0 3 2 4 4 3 4 2 2 2 3 4 2 6 16 14 9 7 8 7 6 6 7 4 5 11 11 8 5 6 6 8 8 9 8 7 6 6 6 6 7 6 4 4
Wind_Direction
136 129 86 86 60 45 38 33 23 19 17 22 13 7 7 4 357 351 348 349 343 339 338 337 337 334 331 329 330 333 323 303 252 254 111 56 341 333 318 304 275 267 248 275 254 254 239 306 314 306 260 264 22 321 346 327 339 258 254 286 213 55 213 97 304 87 97 142 128 126 35 326 270 24 90 255 226 235 262 261 94 84 74 69 69 41 24 22
128 115 83 47 41 34 34 30 27 13 6 1 5 357 3 3 357 349 347 344 343 335 334 336 332 331 329 327 327 334 322 288 254 72 46 18 351 341 329 306 304 251 281 260 308 330 301 339 347 299 260 132 257 55 275 72 307 318 316 257 21 48 67 34 54 72 127 94 45 77 54 338 319 336 33 316 293 192 274 185 134 113 112 88 58 40 31 24
108 107 53 39 29 21 17 12 9 7 359 349 357 352 351 354 354 348 342 340 338 334 331 332 332 326 326 326 325 322 309 267 241 58 74 20 357 351 43 46 288 268 264 327 353 323 341 8 349 295 19 191 11 59 287 52 302 61 301 284 91 57 85 61 63 84 41 32 256 332 107 294 321 290 354 290 303 293 259 104 171 147 105 52 46 37 24 29
154 83 82 340 5 10 353 358 355 349 352 355 343 346 344 343 344 343 339 335 333 330 328 327 325 326 321 319 325 313 256 265 169 105 73 21 360 12 42 37 341 264 272 325 323 358 334 360 311 306 292 279 112 243 241 43 290 62 262 347 84 85 224 138 124 81 61 8 327 299 17 269 229 299 305 305 300 258 95 41 8 6 20 40 40 34 25 26
194 227 282 286 318 336 344 338 338 343 347 346 341 335 337 335 337 337 334 328 327 325 325 322 324 323 321 315 315 265 289 263 107 107 32 7 6 60 29 351 300 284 282 124 208 223 277 324 321 339 294 1 110 213 70 88 18 285 24 47 58 95 244 94 90 66 63 8 293 278 268 359 41 277 260 272 266 6 26 25 13 5 34 35 24 27 29 32
227 224 248 256 281 294 315 320 326 330 331 329 329 328 322 326 331 328 325 326 322 323 321 325 325 323 320 316 308 247 271 328 141 150 1 356 20 61 37 351 315 288 181 254 302 344 272 200 282 266 307 304 35 314 76 25 342 273 127 84 17 42 316 92 134 123 218 219 238 266 355 329 277 280 249 273 292 64 53 47 49 51 42 50 42 29 38 36
250 254 247 262 255 276 289 309 304 309 307 315 317 315 317 324 325 325 324 322 323 320 322 325 326 325 321 306 255 256 282 77 181 83 14 345 66 60 38 206 246 263 272 271 247 284 341 282 283 23 295 270 108 330 70 6 241 293 23 113 145 359 273 78 300 137 219 249 264 312 328 276 271 265 112 240 81 80 72 60 67 67 72 62 58 47 46 43
243 247 258 253 264 266 280 280 293 288 296 304 308 315 320 322 324 322 323 321 319 318 323 324 327 323 338 298 267 231 245 101 80 102 33 312 160 131 257 189 250 278 270 319 322 304 310 276 317 350 265 328 44 307 68 278 220 266 263 93 91 289 256 268 250 229 234 243 262 254 264 261 243 269 163 185 86 95 93 92 77 82 80 64 52 45 44 44
234 240 249 252 255 269 271 281 288 295 303 308 307 314 320 324 321 322 317 318 315 317 319 323 320 324 296 275 269 292 236 62 25 61 123 155 112 105 269 187 196 254 313 268 286 305 278 107 267 340 2 319 71 290 125 309 166 25 42 320 187 238 247 251 259 251 242 248 204 237 250 247 221 130 207 102 114 113 118 115 107 90 62 50 44 40 32 37
235 236 238 245 246 252 268 272 280 291 300 303 307 311 317 319 319 315 315 313 311 313 314 317 328 318 297 240 223 259 82 289 86 82 67 90 130 156 236 340 209 232 255 102 257 239 261 26 356 60 320 256 279 353 36 269 17 329 335 292 274 276 266 249 248 256 225 252 210 241 273 185 136 203 181 125 129 141 141 119 94 59 63 51 44 32 26 23
234 231 236 245 243 249 266 269 274 279 293 297 303 310 315 315 315 312 309 308 309 307 313 316 324 316 276 243 258 260 79 245 57 103 92 5 147 189 176 94 298 263 272 169 271 337 15 247 61 245 237 44 204 137 269 49 351 317 318 294 262 251 245 239 233 257 252 246 220 239 247 120 150 205 323 137 142 156 157 128 115 100 72 70 54 49 38 33
232 232 234 242 238 248 253 261 271 278 281 290 303 306 308 308 308 311 307 307 304 309 313 319 315 305 278 272 244 298 335 32 129 116 121 202 87 38 34 7 332 314 267 258 167 102 342 38 228 237 355 360 222 92 158 117 281 319 292 294 298 273 254 227 230 187 218 199 183 190 240 227 183 218 124 127 149 167 164 152 139 118 107 92 72 61 57 42
233 235 233 234 236 228 244 257 264 271 272 285 297 303 305 303 308 307 305 300 310 317 323 326 307 272 300 248 223 57 300 109 110 115 118 104 102 85 72 38 352 347 2 301 140 110 3 262 255 266 30 284 319 310 86 224 193 281 244 274 294 272 249 135 136 169 218 117 160 186 262 210 192 146 125 133 159 170 173 174 155 132 123 105 90 88 76 48
234 238 240 243 236 234 243 249 258 260 266 282 298 301 304 307 308 305 298 294 322 330 316 323 316 271 249 262 95 55 32 97 148 155 129 157 156 88 113 100 64 51 357 62 66 58 116 251 265 76 61 314 343 132 199 195 223 261 360 243 270 280 242 145 156 151 230 125 169 225 261 29 140 128 115 136 167 182 192 165 158 144 128 117 101 105 91 79
225 236 248 253 216 228 247 250 254 255 260 283 292 298 305 312 311 306 313 297 267 334 324 302 255 245 222 156 97 84 327 289 197 157 134 192 154 135 135 121 85 76 70 75 94 68 182 163 197 214 139 52 129 201 245 248 222 234 265 246 200 244 130 150 147 176 250 137 193 215 259 265 155 154 127 141 173 198 210 173 160 148 128 100 112 108 100 85
218 218 243 245 230 240 242 246 260 263 276 292 303 293 302 309 297 308 322 312 317 293 265 253 174 279 306 247 105 159 210 201 182 99 138 311 243 233 124 114 116 112 117 69 103 142 157 198 273 15 110 152 217 236 266 262 239 206 241 270 277 250 276 201 149 169 211 132 172 211 274 50 158 143 143 148 167 198 199 175 163 147 140 153 125 94 81 119
220 214 226 231 225 218 228 234 245 259 259 277 282 274 267 288 303 302 304 297 263 218 257 323 150 190 258 65 132 217 200 135 72 149 148 217 295 144 145 144 140 118 107 127 143 176 141 214 129 228 232 251 230 227 248 249 262 230 198 272 276 267 273 270 117 189 146 239 204 206 253 264 93 163 156 166 192 191 204 177 161 158 148 136 129 122 105 89
213 214 217 221 218 215 213 222 244 253 250 255 267 318 291 296 299 287 230 226 232 239 222 267 243 258 229 118 229 162 75 119 162 125 119 130 254 166 165 154 136 145 147 136 168 213 170 207 180 262 194 212 208 206 220 243 266 298 183 238 255 238 233 273 277 134 211 172 256 257 247 260 257 157 167 160 187 203 196 174 164 160 160 158 150 142 120 85
209 210 213 222 207 212 206 224 234 247 243 265 280 264 269 275 267 260 223 172 191 159 209 180 183 202 289 166 109 100 82 96 112 174 145 157 167 150 144 139 173 156 186 215 154 210 170 216 205 242 238 213 207 211 227 246 280 285 296 295 299 285 272 262 274 117 238 225 253 247 260 263 265 170 162 170 179 206 169 157 161 168 166 163 164 148 135 99
207 211 216 209 202 202 200 218 230 236 246 247 222 221 208 201 191 181 193 211 228 225 14 142 198 31 108 146 134 66 140 193 151 140 135 147 154 169 163 173 156 229 215 218 148 202 164 212 216 219 231 230 219 222 237 264 318 298 286 275 267 272 272 268 258 127 114 278 255 261 265 266 264 265 168 164 169 186 186 189 181 181 172 170 162 149 128 115
209 210 209 207 202 194 206 219 224 238 243 265 232 231 210 206 202 227 167 217 222 241 260 254 226 261 320 103 123 159 139 171 293 161 162 176 197 167 170 175 180 206 214 228 191 91 198 231 231 235 246 267 255 228 242 257 268 271 274 272 269 257 267 273 284 121 141 255 273 280 275 262 267 268 166 166 180 192 195 191 187 175 177 162 168 152 156 114
207 207 214 209 191 191 208 218 215 222 246 241 223 233 330 13 359 333 317 252 206 226 238 244 36 253 143 151 156 234 260 156 182 158 148 199 169 206 162 200 193 220 164 141 123 178 209 225 233 240 248 108 56 279 280 265 267 255 256 263 267 260 268 270 242 141 180 170 275 273 272 273 263 266 149 184 198 169 160 205 187 175 173 177 166 161 148 144
199 211 220 202 193 189 204 214 209 194 211 213 215 240 291 20 323 337 294 281 283 209 218 219 223 232 212 148 178 222 200 206 198 174 171 204 168 228 168 198 206 223 164 189 211 214 239 236 233 239 146 199 180 214 229 249 247 254 241 236 244 274 264 278 130 84 173 236 309 307 290 276 268 214 147 117 155 133 147 194 163 214 189 185 173 163 160 144
199 208 212 197 189 194 201 206 195 198 224 223 237 228 43 345 348 310 263 258 291 187 207 209 221 216 211 190 171 184 209 219 228 182 160 183 185 184 211 206 219 217 210 203 218 232 232 12 42 195 182 218 242 216 224 231 247 223 232 249 258 254 237 243 271 175 196 243 249 268 273 270 251 212 171 150 140 163 177 179 182 181 159 101 94 131 159 146
201 204 204 195 194 190 199 186 205 220 219 236 249 258 263 264 297 354 300 277 230 228 78 240 164 235 197 52 141 189 213 248 235 147 168 188 170 148 216 210 234 231 222 217 228 241 249 182 133 158 178 215 225 240 219 229 254 258 231 227 249 267 272 265 272 289 286 282 179 229 287 268 185 195 195 147 167 192 173 187 189 174 173 177 181 168 144 110
202 202 202 195 188 189 167 191 214 198 204 221 225 235 237 245 263 314 288 250 275 177 95 221 147 218 120 170 146 188 70 232 162 146 164 203 146 217 102 218 200 237 221 222 232 246 263 114 180 178 191 218 223 246 241 213 253 258 279 217 238 258 265 268 268 135 268 264 108 233 237 282 158 192 165 156 177 177 165 197 184 172 173 182 177 163 160 153
206 204 199 191 189 169 161 219 160 161 199 243 222 189 171 174 121 297 228 234 276 160 169 46 210 192 315 149 159 142 225 206 106 109 167 40 185 234 214 196 158 250 346 156 3 235 155 173 184 210 224 225 231 238 229 218 241 255 56 125 192 252 244 244 234 233 260 316 178 202 247 272 283 279 139 158 177 176 182 191 185 182 176 181 167 160 150 145
205 204 193 191 185 174 234 149 151 185 201 65 343 163 137 131 140 212 228 281 256 115 151 192 87 350 267 151 181 183 34 110 157 178 17 87 281 161 221 217 196 203 185 173 231 72 186 176 192 205 214 225 231 242 202 195 226 280 82 48 214 258 265 244 236 241 247 298 265 198 205 251 258 221 137 161 186 196 198 189 188 180 177 171 165 157 152 148
202 202 193 191 185 187 226 190 191 206 171 86 80 155 117 148 216 234 224 236 112 111 346 123 258 148 98 160 173 156 152 339 283 73 146 69 335 302 204 232 238 243 189 200 239 164 29 132 203 213 202 225 186 65 66 182 228 131 119 78 80 95 106 227 232 236 238 243 246 230 182 248 265 202 173 180 249 219 199 183 182 177 171 170 165 158 157 147
198 199 194 185 180 197 213 245 224 135 81 95 97 125 142 156 181 209 153 249 136 213 127 103 191 173 153 159 191 172 179 113 47 141 151 180 178 252 18 334 245 205 193 227 259 8 117 135 355 247 219 288 85 63 35 24 58 126 146 125 121 149 172 189 241 247 261 242 245 231 198 218 283 237 193 192 204 214 152 165 166 166 167 168 165 160 158 157
196 195 193 178 189 180 174 212 214 113 106 100 131 160 154 207 209 190 217 219 346 89 114 157 142 144 162 164 185 189 208 121 145 146 135 135 149 220 170 158 231 228 230 235 241 217 171 134 174 190 82 109 109 92 56 34 117 168 160 182 166 193 187 224 205 221 238 255 119 299 211 197 233 237 214 78 73 123 156 172 169 170 171 168 164 161 160 157
198 194 191 188 183 159 196 211 186 118 122 138 148 166 179 175 277 209 224 80 262 173 168 162 149 172 178 186 166 168 172 153 159 184 169 178 170 183 192 199 160 189 229 215 237 178 221 204 170 108 239 158 166 147 101 120 162 205 179 185 195 196 155 213 188 208 217 245 115 82 96 222 237 255 76 125 141 143 170 173 173 168 166 163 160 159 159 159
196 195 189 193 179 197 207 193 116 129 127 160 158 212 196 179 209 211 228 143 232 125 154 143 167 178 180 177 193 152 154 187 167 192 177 185 191 209 205 215 184 201 267 185 203 162 241 182 185 175 124 218 182 193 155 184 192 191 196 183 193 222 212 232 202 227 245 82 277 107 188 242 314 234 264 157 109 106 83 148 166 165 163 161 158 157 158 160
195 193 192 191 193 192 179 127 133 128 131 169 162 161 306 208 224 204 208 204 186 38 105 141 149 166 175 183 177 156 158 197 161 172 184 175 205 208 202 217 217 212 236 153 201 188 235 217 209 164 218 166 202 214 197 192 168 200 201 195 210 221 231 227 213 219 234 198 108 225 149 232 174 170 65 82 78 88 86 77 155 158 155 153 154 154 155 162
192 193 196 186 195 196 177 153 148 146 150 170 176 178 193 224 233 201 210 191 126 129 95 139 146 157 185 200 107 180 194 158 188 163 191 193 202 213 199 200 205 219 200 231 219 209 223 258 67 151 360 159 191 185 19 173 167 192 203 251 252 243 307 261 16 340 54 213 180 172 230 267 235 110 108 125 118 111 131 121 149 154 153 152 155 161 166 170
185 194 188 191 191 187 170 154 150 153 159 181 170 192 207 200 213 187 227 174 150 148 136 141 155 175 186 192 155 188 131 118 172 180 204 212 221 214 214 203 194 193 190 202 151 216 157 237 112 130 161 186 183 125 196 208 209 167 162 215 200 17 301 5 160 94 195 309 257 152 234 244 112 166 147 151 149 142 147 152 160 162 159 159 165 167 170 172
182 178 198 193 195 174 163 147 150 155 168 187 195 201 213 208 232 170 175 186 171 128 149 171 197 192 184 199 185 187 178 142 166 183 203 179 239 228 215 213 196 195 212 200 219 225 239 136 204 158 203 43 47 335 30 51 342 115 211 202 68 20 2 258 268 178 215 255 269 162 208 217 162 244 142 157 180 164 171 164 171 165 165 170 173 174 174 173
188 192 205 190 189 162 157 150 147 159 183 200 209 222 54 225 172 205 60 120 145 153 192 208 202 185 202 191 188 175 172 192 173 182 222 163 262 176 196 206 197 203 204 215 252 214 204 255 159 228 91 103 101 161 206 111 325 272 259 73 168 206 212 214 233 252 247 245 263 221 210 229 205 208 143 180 185 182 178 166 173 177 181 183 179 176 173 168
187 181 209 201 147 163 153 147 161 167 187 203 212 230 220 238 26 77 46 315 206 177 210 205 215 192 214 204 189 170 165 198 159 187 188 186 228 172 186 178 201 204 202 180 218 217 186 239 162 295 158 132 145 178 201 190 191 327 204 245 5 334 237 178 200 288 276 261 243 260 143 248 201 220 174 190 186 177 168 171 187 189 187 184 181 177 176 177
170 164 247 142 157 149 153 150 164 187 197 206 207 222 56 214 161 51 9 311 191 205 214 217 213 224 204 225 187 165 188 195 167 192 205 169 204 151 193 182 192 185 197 197 208 185 221 112 268 118 330 144 191 192 212 184 182 183 203 211 173 211 22 330 292 216 226 248 246 269 256 229 161 14 193 188 176 173 173 178 184 191 190 188 184 179 180 180
184 191 184 148 152 147 142 154 167 198 200 224 238 245 184 217 148 186 157 354 339 38 1 252 228 221 206 199 212 175 163 199 194 196 200 202 197 214 190 186 168 146 159 189 208 177 198 170 228 128 189 205 210 140 263 326 208 196 190 202 187 165 176 192 237 115 220 214 249 246 259 287 92 57 38 51 51 157 174 173 181 187 187 185 184 184 182 180
165 209 193 157 143 146 156 174 196 194 214 207 211 207 204 95 175 173 154 78 328 136 44 297 360 306 203 199 202 150 158 187 203 206 201 222 186 231 54 354 179 146 153 179 197 187 199 141 203 186 210 208 197 58 45 360 340 297 235 217 195 204 187 196 221 182 121 237 36 279 324 263 73 61 66 52 65 47 107 156 167 175 183 185 188 188 187 185
185 202 45 157 158 155 169 198 186 194 211 220 117 89 118 155 189 169 163 177 200 201 215 215 221 213 238 224 133 190 168 210 186 208 211 213 225 86 53 332 73 166 179 115 72 288 63 187 198 215 78 94 136 136 147 89 14 273 251 264 215 205 200 219 244 156 199 159 187 221 243 262 108 68 72 81 69 97 43 167 162 163 179 186 184 183 185 177
186 115 183 326 193 165 176 185 189 201 217 177 195 204 164 195 183 182 201 182 189 160 202 185 87 243 305 86 178 207 177 236 201 209 223 190 201 73 42 162 198 177 190 192 194 163 159 209 208 203 216 182 183 172 209 138 199 231 221 199 234 234 171 76 75 78 255 215 195 199 243 189 167 56 70 82 111 100 130 154 170 151 153 175 178 175 165 156
92 22 21 162 31 203 190 188 191 192 204 209 190 203 166 188 236 217 198 205 178 168 148 219 178 133 155 139 174 45 255 229 348 300 34 183 119 48 40 29 286 221 38 15 7 191 197 172 175 199 211 220 219 212 212 196 202 205 230 207 194 216 168 140 218 196 239 206 181 219 234 101 125 149 164 119 110 143 113 131 156 151 157 163 153 159 156 155
189 142 228 25 191 9 279 36 193 189 196 202 210 218 191 202 165 32 201 218 124 125 273 110 23 107 122 135 164 207 199 76 202 196 176 201 166 52 351 351 42 46 16 9 5 44 202 356 217 215 219 232 238 23 353 113 122 195 191 181 196 206 204 202 247 225 227 201 203 220 215 136 188 173 190 167 186 159 156 152 171 181 175 180 179 182 180 183
134 184 142 227 21 255 309 207 191 184 203 186 202 175 200 205 154 19 209 207 202 168 113 139 164 155 205 177 192 198 173 138 37 148 206 157 56 78 358 331 72 59 360 346 348 95 133 220 232 238 48 88 73 22 346 168 185 190 168 193 188 189 195 198 207 224 105 174 245 183 190 208 192 179 178 166 159 156 174 173 184 184 183 185 177 174 180 184
204 203 176 192 181 190 189 237 201 199 199 176 212 165 200 191 173 188 89 273 124 168 174 260 218 215 196 195 179 194 158 189 129 207 118 46 117 180 82 53 203 337 312 146 273 162 185 218 194 178 228 78 19 36 337 7 23 171 182 176 189 188 189 200 219 220 176 213 245 97 176 208 205 189 184 179 173 188 184 180 180 184 167 157 162 172 188 196
18 35 154 332 218 253 209 187 177 187 189 181 189 167 184 190 202 195 150 142 157 211 197 209 218 210 208 198 189 206 167 170 238 216 176 170 169 152 148 81 290 360 151 88 48 244 130 236 133 218 178 96 47 9 14 70 357 307 250 218 203 184 198 208 225 227 230 249 248 143 194 224 228 196 171 183 183 168 175 177 156 162 166 166 176 185 193 192
181 158 171 15 16 313 189 156 164 178 198 181 185 202 195 194 205 169 158 159 179 213 192 227 219 187 195 193 193 204 202 207 209 181 196 146 165 225 180 185 132 124 177 124 167 285 176 215 93 201 121 282 48 63 59 67 72 272 258 238 234 220 203 209 224 226 233 251 250 239 262 260 218 206 177 119 113 130 146 173 188 171 161 170 184 194 197 195
23 38 300 147 183 191 147 178 178 186 185 185 196 201 196 208 214 185 192 194 196 180 182 210 197 155 180 193 203 218 183 142 143 183 162 174 185 177 160 191 135 143 97 94 81 324 50 172 81 216 169 237 18 40 61 60 35 269 267 249 224 206 193 218 223 215 214 230 251 285 260 250 105 162 118 152 172 184 200 204 189 170 178 181 187 191 191 191
61 168 51 232 186 169 167 166 192 184 208 195 193 192 187 206 202 159 205 224 240 236 203 178 154 159 176 191 212 197 119 95 83 81 130 69 63 82 75 101 129 141 153 127 77 117 151 148 157 174 189 204 34 94 102 83 26 290 249 231 213 196 203 218 226 223 218 205 235 233 239 252 234 153 168 190 194 212 227 221 197 184 187 186 194 201 194 199